Regional Weather Roundup
Issued by NWS Jackson, KY

Home | Current Version | Previous Version | Graphics & Text | Print | Product List | Glossary On
Versions: 1 2 3 4 5 6 7 8 9 10 11 12 13 14 15 16 17 18 19 20 21 22 23 24 25 26 27 28 29 30 31 32 33 34 35 36 37 38 39 40 41 42 43 44 45 46 47 48 49 50
000
ASUS43 KJKL 291810
RWRJKL

EAST KENTUCKY HOURLY WEATHER ROUNDUP
NATIONAL WEATHER SERVICE JACKSON KY
200 PM EDT TUE JUL 29 2014

NOTE: "FAIR" INDICATES FEW OR NO CLOUDS BELOW 12,000 FEET WITH
NO SIGNIFICANT WEATHER AND/OR OBSTRUCTIONS TO VISIBILITY.

* THESE REPORTS ARE NOT UNDER NWS QUALITY CONTROL AND MAY NOT
  REPORT WEATHER SUCH AS PRECIPITATION AND FOG.

KYZ079-080-083-085-087-088-110-112-115-119-120-291900
...EASTERN KENTUCKY...

CITY           SKY/WX    TMP DP  RH WIND       PRES   REMARKS
JACKSON        PTSUNNY   68  51  54 VRB6      30.08S
6HR MIN TEMP:  56; 6HR MAX TEMP:  69;

LONDON         MOSUNNY   70  49  47 N7        30.09F
6HR MIN TEMP:  59; 6HR MAX TEMP:  71;

SOMERSET*      PTSUNNY   70  50  49 N9        30.10F
MONTICELLO*    MOSUNNY   73  55  53 NW9       30.12S
6HR MIN TEMP:  60; 6HR MAX TEMP:  73;

MIDDLESBORO*   PTSUNNY   72  54  52 W7        30.07F
6HR MIN TEMP:  57; 6HR MAX TEMP:  73;

HARLAN APT*    MOCLDY    70  48  46 MISG      30.07S
BLACK MTN*       N/A     61  54  77 VRB3        N/A
PIKEVILLE APT* PTSUNNY   66  54  63 W7        30.06S
BIG SANDY*     PTCLDY    68  51  55 NW6       30.06S
6HR MIN TEMP:  59; 6HR MAX TEMP:  70;

MOREHEAD APT*  MOCLDY    64  55  72 CALM      30.11S
$$

KYZ035-036-041-042-044-050-067-078-099-291900
...CENTRAL KENTUCKY...

CITY           SKY/WX    TMP DP  RH WIND       PRES   REMARKS
MT STERLING*   PTSUNNY   68  55  64 NE6       30.10S
FLEMING/MASON* MOSUNNY   66  57  72 SW5       30.09S
DANVILLE*      MOSUNNY   68  50  52 N6        30.10F
RICHMOND*      MOSUNNY   68  52  56 W7        30.09S
LEXINGTON      MOSUNNY   71  53  52 N7        30.09F
6HR MIN TEMP:  54; 6HR MAX TEMP:  71;

FRANKFORT      PTSUNNY   69  52  54 NW5       30.09S
6HR MIN TEMP:  52; 6HR MAX TEMP:  71;

$$

KYZ091>093-OHZ055-061-077-WVZ005-015-034-035-042-291900
...SOUTHERN OHIO/WEST VIRGINIA...

CITY           SKY/WX    TMP DP  RH WIND       PRES   REMARKS
COVINGTON      MOSUNNY   70  50  49 VRB3      30.07F
COLUMBUS       PTSUNNY   69  50  50 VRB7      30.04F
DAYTON         MOSUNNY   69  49  48 CALM      30.07F
WILMINGTON     MOSUNNY   67  48  50 N8        30.06F
HUNTINGTON     CLOUDY    67  58  72 W6        30.05F
CHARLESTON     PTSUNNY   68  59  73 NW12      30.03S
PINEVILLE*     SUNNY     73  56  54 MISG      30.07F
BECKLEY        PTSUNNY   69  51  52 W12       30.04S
BLUEFIELD      PTSUNNY   69  50  50 W8        30.05F
$$

VAZ002-007-008-TNZ017-027-036-066-071-291900
...SOUTHWEST VIRGINIA/EAST TENNESSEE...

CITY           SKY/WX    TMP DP  RH WIND       PRES   REMARKS
WISE*          PTSUNNY   64  52  63 NW6       30.08F
JONESVILLE*    CLEAR     72  52  49 W7        30.07F
ABINGDON*      MOSUNNY   74  53  47 NW10      30.04F
BRISTOL        MOSUNNY   75  52  44 W8        30.03F
KNOXVILLE      MOSUNNY   75  56  51 NW6       30.03F
OAK RIDGE      MOSUNNY   77  52  41 VRB3      30.05F
CROSSVILLE     SUNNY     72  47  40 NW12G17   30.11F
NASHVILLE      MOSUNNY   78  52  40 N8G18     30.11F
$$

...KEY TO REMARKS...
VSB - VISIBILITY IN MILES
WCI - WIND CHILL INDEX
HX  - HEAT INDEX

$$


USA.gov is the U.S. government's official web portal to all federal, state and local government web resources and services.